Theta_e
329 327 328 330 330 326 320 316 298 304 301 294 296 298 296 306 307 305 305 308 304 310 312 310 308 307 306 305 310 309 308 304 307 299 298 307 315 316 323 323 327 326 330 334 336 341 341 344 343 344 343 343 343 342 341 341 340 339 339 339 338 338 338 336 337 337 336 336 336 335 335 334 334 333 333 333 333 333 332 332 331 332 330 329 331 331 330 329 331 330 330 330 330 330 330 330 331
325 325 326 327 325 324 311 315 302 298 298 294 296 300 300 305 305 303 303 305 307 309 310 310 310 310 309 309 308 307 307 310 310 310 315 313 313 315 324 323 327 324 328 334 337 339 340 339 344 343 343 343 343 342 341 340 339 339 339 339 338 338 338 336 337 336 336 336 335 335 335 334 334 333 332 332 333 332 332 332 333 331 331 330 331 330 328 329 330 330 327 328 329 330 330 331 331
320 321 323 326 323 317 314 311 296 296 293 291 295 299 305 302 302 305 307 308 311 312 309 311 312 310 309 309 305 305 302 313 313 312 312 314 313 313 321 321 325 324 328 334 336 337 339 339 344 343 343 343 343 342 340 340 340 339 339 338 339 338 338 337 337 337 336 336 335 335 335 335 334 333 332 332 332 331 331 331 331 332 331 330 331 331 328 329 330 329 328 329 328 328 329 331 331
324 322 320 321 312 319 306 305 299 295 292 294 295 301 303 303 304 306 309 310 310 311 311 309 307 311 308 303 305 309 308 310 314 312 310 312 313 315 320 322 323 325 325 332 334 336 337 341 343 343 342 342 342 342 340 340 339 339 339 338 338 337 337 337 336 336 336 335 336 335 335 335 334 333 332 332 332 331 331 330 331 331 331 331 331 330 329 330 329 328 328 328 328 329 329 332 331
318 321 323 318 313 305 305 302 299 298 292 295 293 301 303 304 305 307 310 315 312 310 312 311 309 311 311 309 310 305 305 312 313 313 311 316 318 318 322 321 323 325 327 326 333 333 338 341 342 343 342 342 342 342 341 340 340 339 339 338 338 337 336 336 336 336 335 335 335 335 335 335 334 333 333 332 332 331 331 331 331 331 331 331 331 330 329 330 330 329 328 328 327 329 330 331 329
321 317 323 319 308 316 306 298 297 296 299 301 298 299 303 305 305 307 308 310 316 312 313 311 311 309 308 309 311 307 314 305 312 312 314 316 318 320 321 325 322 326 325 325 330 332 337 341 342 343 342 342 342 341 341 340 340 339 339 338 337 336 335 336 335 335 335 335 335 335 334 335 333 333 333 333 332 332 331 331 331 331 331 331 331 330 328 328 330 329 328 328 328 329 330 330 329
314 315 316 316 312 312 298 296 296 297 300 304 301 302 304 305 306 306 307 307 311 314 316 314 313 314 307 311 313 313 314 314 312 313 316 317 320 320 321 319 321 325 326 325 325 333 339 340 341 343 342 342 342 341 340 340 340 339 338 338 337 336 336 336 335 335 336 334 335 335 335 333 333 333 333 332 332 332 331 331 331 331 331 331 330 329 328 329 330 329 328 328 328 328 330 330 328
321 309 313 306 302 303 296 296 296 298 299 304 305 303 305 306 307 306 306 306 305 306 313 314 313 309 308 314 306 314 314 315 316 314 314 316 321 318 320 318 320 324 326 325 325 331 337 339 341 342 342 342 342 342 341 341 340 339 338 338 337 336 335 335 335 336 336 335 335 335 335 334 334 333 333 332 332 331 331 331 331 331 331 330 329 329 329 329 329 329 328 328 328 328 330 329 329
314 310 316 304 298 302 298 296 297 302 302 304 304 306 309 307 307 306 305 306 307 308 309 312 313 306 306 309 308 313 312 315 315 317 313 312 314 319 318 316 317 324 326 324 326 338 336 338 339 341 342 342 342 341 341 339 339 339 338 338 337 336 335 335 335 335 336 335 335 335 334 334 333 333 333 332 332 331 331 331 331 330 330 330 330 330 329 328 329 329 329 328 327 327 329 329 329
310 309 301 300 301 293 295 296 296 299 301 305 304 305 307 307 306 307 305 304 306 308 308 311 312 306 308 305 308 311 310 314 313 314 314 314 316 324 320 318 320 323 326 325 327 338 336 336 338 339 341 342 341 341 341 340 339 338 338 337 336 336 335 335 335 335 335 335 334 334 334 333 333 332 332 332 331 331 331 331 331 330 330 329 330 330 329 328 328 329 329 327 328 328 329 328 328
302 308 312 299 295 293 292 294 296 299 300 304 305 307 307 308 307 305 306 305 308 306 309 310 307 307 308 307 309 314 316 314 313 312 314 314 317 317 318 320 322 325 327 327 328 335 336 335 335 338 339 340 340 340 341 341 340 338 338 337 336 336 335 335 336 336 336 336 334 334 333 333 333 332 333 333 332 332 330 331 331 330 330 330 330 330 329 328 328 328 328 329 328 328 329 329 328
299 301 305 295 293 293 294 294 296 299 301 302 302 306 307 306 306 304 305 303 306 306 306 309 306 310 306 307 308 313 316 316 316 313 315 317 318 323 327 323 327 327 331 330 329 334 335 335 334 336 337 338 339 339 339 340 340 339 338 337 336 336 335 335 335 335 335 334 334 334 333 333 332 332 334 334 332 332 330 331 330 330 330 330 329 329 328 328 328 328 329 329 328 328 328 328 328
301 305 299 296 295 296 297 296 296 298 299 300 301 305 307 305 304 305 305 306 306 305 305 310 312 311 304 306 313 314 315 313 314 315 318 318 318 321 324 324 329 332 334 331 329 332 335 335 334 335 336 337 337 337 337 338 339 338 338 337 337 336 335 335 335 335 335 335 334 335 334 333 332 332 332 334 331 331 331 332 330 329 329 329 329 329 328 327 327 328 328 328 328 327 328 328 328
302 304 300 293 298 295 295 295 297 295 296 301 304 306 307 305 305 306 306 303 305 304 309 313 312 311 307 309 310 311 313 313 314 315 315 319 321 322 325 324 327 329 333 332 329 331 334 334 334 335 335 335 335 335 335 336 337 337 337 336 336 336 336 336 335 335 335 335 335 334 334 334 334 334 333 333 331 331 330 330 330 329 329 329 329 328 328 327 326 326 327 327 326 326 327 327 328
302 306 299 296 294 294 296 293 294 295 295 301 304 305 305 306 306 306 305 303 305 310 311 313 311 308 303 305 306 310 315 313 314 315 318 319 324 324 325 325 327 327 329 329 330 329 333 333 334 334 334 335 335 334 334 334 335 335 335 335 335 335 335 335 334 334 334 334 333 332 331 331 332 333 333 332 331 331 330 330 329 329 329 329 328 328 327 326 325 324 325 325 326 327 328 327 327
310 306 300 294 292 293 294 295 297 295 296 302 304 305 304 305 307 305 306 307 306 310 310 305 311 306 308 308 310 314 311 313 314 317 318 323 322 325 323 322 321 325 326 326 327 329 331 332 332 333 333 334 334 334 334 333 334 334 333 333 333 334 334 333 332 331 331 331 331 330 329 329 330 330 332 330 332 330 330 328 329 328 328 328 328 327 327 325 323 324 324 324 325 327 327 327 327
310 308 294 293 290 292 294 294 296 292 299 301 304 304 300 301 307 307 309 309 304 305 307 308 307 311 308 309 312 314 312 313 315 317 320 319 321 319 320 319 318 323 326 325 323 328 330 331 332 332 333 333 333 333 333 333 333 332 332 332 332 332 332 331 330 330 328 328 327 327 328 328 326 326 327 326 330 327 327 326 328 327 327 327 327 326 325 323 323 324 324 324 325 325 326 327 326
307 297 294 291 293 292 297 296 298 301 298 300 302 303 301 299 303 305 307 305 305 305 305 308 309 309 309 311 313 314 314 313 314 313 316 315 315 313 317 317 316 317 322 323 323 326 328 329 331 332 332 332 332 333 334 333 333 332 332 331 330 330 330 329 329 329 328 327 325 326 326 325 324 324 324 326 325 325 325 325 325 326 327 326 326 325 324 323 324 325 325 324 323 324 326 319 321
299 296 295 291 295 297 301 300 301 299 298 300 302 303 301 300 302 304 300 300 302 301 303 305 305 307 309 311 311 312 312 313 312 312 313 314 315 314 314 316 317 315 319 321 322 324 327 328 329 330 332 332 331 332 333 333 332 331 332 332 331 329 329 328 329 328 327 327 326 326 325 325 324 323 322 324 324 324 324 324 324 325 326 326 326 325 323 322 324 324 324 323 322 322 321 317 317
301 297 292 294 299 299 301 302 301 302 302 300 300 302 301 302 302 305 300 299 301 299 300 302 303 304 306 309 310 311 313 312 313 312 312 314 314 314 315 315 315 315 319 321 322 324 327 327 328 330 331 333 332 331 332 332 332 332 332 332 332 331 330 329 329 328 328 327 327 326 325 324 323 323 325 326 325 324 323 323 323 323 324 325 324 323 322 320 321 322 322 322 326 324 319 318 319
301 297 293 295 299 297 300 301 301 301 301 300 300 301 300 302 302 302 300 298 298 300 302 302 302 304 306 307 308 309 312 312 313 312 313 314 315 315 315 315 313 314 316 321 322 323 325 326 328 329 329 332 332 331 332 332 333 332 332 331 331 331 330 329 329 328 328 327 327 325 325 323 323 322 322 323 322 321 321 320 321 320 319 318 322 315 314 314 318 314 314 319 315 317 318 318 317
300 297 299 299 299 295 299 300 301 301 302 300 300 297 297 302 302 300 299 296 296 299 303 305 305 306 306 306 307 308 308 309 310 309 310 311 312 313 316 316 315 314 315 316 322 323 324 326 327 328 328 330 331 331 332 332 333 332 331 331 330 330 330 330 329 328 328 327 326 326 324 323 323 322 322 322 321 321 320 319 319 318 317 317 318 315 311 310 312 312 313 314 313 313 316 317 317
294 298 298 299 300 297 301 301 301 300 299 298 297 299 301 299 298 301 300 298 300 304 305 305 305 306 307 308 308 307 307 307 307 308 308 309 309 310 312 315 314 313 313 313 319 324 325 325 327 328 327 329 330 331 331 331 331 331 331 331 330 329 330 329 329 328 328 327 326 326 325 324 323 323 322 321 321 320 319 319 319 319 318 318 318 316 311 309 313 312 309 310 310 309 310 315 316
298 294 298 298 300 298 301 299 300 299 299 297 299 300 297 297 294 300 298 301 303 304 305 305 306 307 307 305 306 306 306 306 306 307 308 308 309 310 311 311 312 313 313 314 314 322 324 325 326 327 327 328 329 330 330 331 330 330 329 329 329 328 329 328 328 328 328 327 327 326 325 325 324 323 323 322 321 320 319 319 319 319 318 317 318 316 309 307 312 311 308 308 308 308 310 314 316
296 295 298 298 299 300 300 299 299 299 299 299 299 296 296 297 297 298 297 300 302 303 304 304 305 305 305 304 304 305 304 305 305 306 307 308 309 310 311 312 311 311 311 313 314 315 323 324 326 326 327 327 329 330 329 330 329 329 329 329 329 327 329 329 329 328 327 327 327 327 326 325 324 323 323 322 321 320 319 319 318 318 318 317 316 313 309 308 308 308 307 307 307 309 312 313 314
297 297 298 298 298 299 299 299 299 299 299 299 297 296 297 299 300 296 298 300 302 303 302 303 303 302 303 303 304 304 304 304 305 304 305 307 308 308 309 310 311 311 311 312 313 315 317 324 325 326 326 327 327 329 328 327 328 327 328 329 330 328 329 329 329 328 328 327 327 327 327 326 325 324 323 322 321 319 319 319 318 318 318 317 314 310 307 307 307 306 306 307 308 310 312 315 315
300 298 298 297 298 298 299 298 299 299 299 299 296 295 296 299 297 293 300 301 302 302 301 302 302 301 302 303 303 304 304 304 305 306 306 306 306 307 308 310 310 311 311 311 312 314 316 318 324 324 325 325 326 327 326 326 326 327 327 328 328 329 329 329 329 328 328 328 328 328 327 326 325 324 323 321 320 319 318 318 318 318 317 316 312 308 307 308 307 307 307 306 308 309 310 313 315
300 299 298 298 298 298 299 299 298 299 297 300 298 296 297 298 297 294 298 301 302 300 301 301 301 301 302 302 303 304 305 305 306 306 305 305 306 306 307 308 309 310 310 311 312 313 314 315 319 324 324 324 324 325 325 325 325 326 326 327 327 328 328 328 328 328 327 328 328 328 327 327 325 324 323 322 320 319 318 318 318 318 317 315 311 308 306 308 308 308 307 308 309 310 312 312 315
300 299 293 295 297 296 298 297 298 299 297 299 299 295 294 294 293 298 300 302 301 300 300 300 300 301 302 303 303 303 304 304 305 305 306 306 306 307 307 309 309 309 311 312 313 313 313 314 315 320 323 322 322 323 325 325 325 326 326 326 327 327 327 327 327 328 327 328 328 328 327 327 325 325 323 322 319 319 318 317 317 317 317 315 311 308 307 307 308 307 309 310 309 310 311 312 314
300 299 296 294 294 293 298 300 299 297 298 299 298 284 288 292 295 297 299 299 300 299 299 299 300 300 301 302 302 303 303 303 303 304 305 305 306 306 306 308 308 309 309 310 312 312 314 316 317 316 320 321 321 322 323 324 324 325 326 326 326 326 326 326 326 327 327 327 327 328 328 327 325 325 324 322 320 318 318 317 317 317 316 315 311 308 306 307 306 307 307 309 311 309 309 310 311
294 297 297 291 289 290 298 298 297 295 298 297 296 285 288 292 295 298 299 299 298 296 297 298 299 300 300 301 301 301 301 302 302 303 304 305 306 306 306 307 307 308 308 308 310 311 312 315 316 316 316 319 320 320 321 323 324 325 325 326 325 325 325 325 325 326 326 326 326 327 327 327 326 325 324 323 320 318 318 317 317 317 316 314 310 307 306 308 307 306 307 308 307 307 308 309 311
296 291 288 292 289 292 296 299 297 292 295 296 294 285 287 291 294 297 298 298 298 296 296 297 298 298 299 299 299 300 301 302 302 303 304 304 305 305 305 306 307 307 307 308 308 310 311 313 314 314 315 317 319 319 321 323 323 324 325 324 324 324 324 324 324 324 325 325 325 325 326 326 325 325 325 324 321 319 318 318 317 317 316 313 310 307 306 307 306 307 307 308 306 306 307 309 309
295 291 288 288 290 290 291 295 296 296 294 295 292 286 290 290 294 296 297 297 297 296 296 297 298 299 299 299 299 299 300 300 301 302 303 304 305 305 305 306 306 307 307 307 307 308 310 312 313 313 314 316 319 319 320 320 322 322 323 323 323 323 323 323 323 323 324 324 324 324 325 326 325 325 325 324 322 320 319 318 317 317 315 312 309 307 306 307 306 307 306 308 307 305 307 307 308
290 293 288 290 288 289 287 294 296 295 293 290 293 289 289 291 294 296 298 298 297 297 297 298 298 298 299 299 299 299 300 300 300 301 302 303 304 305 306 307 307 307 307 307 307 308 309 311 312 313 315 316 318 319 318 318 320 321 321 320 320 321 322 322 322 323 323 323 323 323 324 325 324 325 324 324 323 322 319 318 317 316 315 312 309 307 305 305 306 306 305 306 307 308 307 308 308
287 288 287 288 289 289 288 288 293 294 293 290 290 290 291 293 295 296 298 299 299 298 299 299 300 299 299 299 299 300 300 300 301 302 303 303 303 304 305 305 306 306 307 307 306 307 309 309 310 313 315 315 315 317 317 317 317 317 316 317 318 319 321 321 321 322 322 322 322 322 323 324 323 324 324 324 323 321 319 317 317 316 314 312 309 306 305 304 306 306 306 306 307 308 307 308 309
291 291 288 288 286 287 287 292 295 294 292 291 290 289 290 292 294 296 298 299 299 299 300 300 300 300 300 300 300 300 300 301 303 304 304 304 304 304 304 304 305 305 306 306 306 307 308 308 308 308 312 316 314 315 315 315 314 314 314 314 315 317 319 320 321 321 321 321 321 321 322 323 322 323 323 323 323 320 319 317 316 316 314 312 309 306 304 303 305 306 305 306 305 305 306 309 309
294 292 289 288 287 289 292 293 296 296 290 290 290 291 291 292 294 296 298 299 299 298 298 299 299 300 300 300 300 300 300 301 303 304 305 305 305 304 304 304 304 304 304 305 305 306 307 307 306 307 310 314 314 313 314 314 313 312 312 314 315 316 317 319 319 319 320 320 320 321 321 322 322 322 322 323 322 319 319 317 316 315 314 312 309 307 305 304 305 306 306 306 305 305 304 305 308
293 290 288 287 288 287 292 293 296 293 290 289 291 290 291 293 296 297 299 298 297 298 298 299 299 300 300 300 300 300 301 302 303 303 304 305 304 306 306 304 303 302 302 303 305 306 306 306 305 306 311 313 313 314 313 313 313 313 313 313 314 315 316 317 318 318 319 320 320 321 320 321 320 321 320 321 320 319 317 317 316 315 314 312 310 308 305 305 305 307 306 305 306 305 304 305 309
292 289 288 287 288 291 294 295 295 294 290 288 291 290 291 293 295 298 298 298 299 300 300 299 298 298 299 300 299 300 300 300 301 302 303 303 305 306 305 305 304 303 302 303 303 304 304 305 305 306 310 311 311 312 312 311 311 311 312 311 314 313 316 317 317 317 317 318 320 320 320 319 319 319 319 319 320 318 317 317 316 315 314 312 310 308 306 304 306 307 306 306 305 304 303 306 307
289 289 286 285 289 289 286 294 295 295 292 290 291 290 292 295 297 298 300 299 300 302 302 301 301 298 298 298 298 299 299 298 299 300 300 301 302 304 304 304 304 303 301 301 302 303 305 306 305 306 307 309 309 310 310 310 310 311 311 313 314 314 313 315 315 316 316 317 318 319 318 318 317 317 317 318 318 318 317 317 316 315 314 313 311 308 306 304 306 307 306 306 306 303 303 304 307
291 290 289 288 288 290 290 291 293 294 294 294 292 290 290 293 292 295 298 300 301 302 301 300 299 301 301 302 300 302 299 298 298 299 300 301 301 300 303 304 304 303 303 301 301 302 305 303 303 304 305 307 307 308 309 310 310 310 310 312 312 312 312 313 313 313 315 316 316 317 317 317 317 316 316 317 317 318 317 317 316 315 314 313 312 309 306 305 307 307 307 306 306 304 302 303 305
288 292 291 291 292 292 293 293 290 287 286 292 290 282 284 290 292 294 297 297 294 297 297 298 298 299 299 298 298 300 302 300 299 300 300 301 301 302 301 302 303 302 302 303 302 304 301 302 302 303 303 305 306 307 309 310 310 310 309 310 309 309 309 310 311 312 313 314 315 316 316 317 316 316 316 316 316 316 316 316 315 315 314 313 312 311 308 305 306 307 307 306 306 304 304 304 303
284 288 295 294 293 292 290 289 288 281 280 288 293 282 280 290 290 292 295 295 293 296 296 296 298 299 300 298 298 298 300 299 300 300 300 301 301 301 301 302 302 302 302 304 304 303 302 302 301 302 302 304 306 306 308 309 308 309 309 309 310 309 309 310 310 311 313 312 313 314 315 315 316 315 315 315 315 315 316 316 315 315 315 314 312 311 309 306 307 307 308 306 306 305 304 304 304
285 294 294 294 292 290 290 290 286 284 289 290 291 288 281 282 288 292 294 294 292 293 295 294 295 295 296 297 298 299 298 298 299 300 300 301 301 301 301 302 302 303 304 305 305 305 303 302 302 302 302 303 305 307 307 308 308 308 308 308 309 309 308 308 309 310 311 311 312 312 313 314 315 315 315 315 315 315 315 315 315 314 314 314 312 312 310 308 307 308 307 307 306 306 305 305 305
290 293 295 292 292 291 290 286 285 286 284 282 285 287 280 280 288 294 294 291 291 291 292 293 294 294 294 295 297 296 297 299 298 298 300 301 301 302 301 303 305 306 305 305 304 304 304 304 303 301 301 301 304 306 306 307 308 308 308 308 308 308 307 307 308 309 310 310 310 310 312 313 313 314 314 315 315 315 314 314 315 314 313 313 312 312 310 309 307 307 306 306 305 305 305 305 305
294 295 295 294 292 291 290 284 285 285 281 280 281 285 278 281 288 290 292 289 289 290 291 292 293 293 294 295 295 296 296 297 300 299 301 302 302 302 301 304 306 306 305 306 305 303 303 302 302 301 301 302 304 305 305 305 306 307 307 307 306 305 305 306 307 308 308 309 309 309 311 311 312 312 313 314 314 314 313 313 314 314 313 313 311 312 310 309 308 307 307 307 306 305 305 304 306
293 294 291 290 290 287 286 286 284 281 277 281 285 286 282 276 285 288 287 289 290 290 290 292 293 293 295 295 295 296 296 297 297 298 299 302 301 301 301 303 305 305 304 304 304 304 303 302 301 301 302 303 303 303 304 305 305 305 306 306 305 304 304 306 306 306 307 307 308 309 310 310 311 311 312 312 313 314 313 313 313 313 313 312 310 311 310 309 308 308 307 307 305 305 305 304 304
293 287 286 285 284 285 283 283 283 276 276 282 285 286 286 275 281 288 291 293 292 290 289 289 291 293 294 294 295 296 296 296 296 297 298 299 300 301 303 303 304 304 305 305 304 305 304 303 302 301 302 302 302 303 303 304 304 304 304 304 305 305 305 307 306 306 307 307 307 308 309 309 310 310 311 311 312 312 312 312 312 312 312 312 311 311 310 308 308 308 307 307 305 305 305 304 304
288 285 285 278 277 280 276 280 275 276 276 280 282 285 281 281 286 290 292 293 291 291 291 291 292 293 294 294 295 295 296 296 297 296 297 297 297 297 297 300 303 305 304 305 304 303 304 303 303 302 302 302 302 303 302 303 303 304 305 305 304 306 306 307 306 306 307 307 308 308 308 309 309 309 310 310 311 312 311 311 311 311 312 312 310 310 309 308 307 308 308 307 306 305 305 305 304
285 282 281 278 274 274 272 276 279 279 281 281 281 285 279 284 288 292 292 292 291 291 292 292 293 294 294 295 296 295 296 296 297 297 296 296 296 296 297 299 301 302 304 304 302 303 302 303 303 303 303 302 302 302 302 302 303 303 304 304 305 306 306 306 306 307 307 307 308 309 309 309 309 309 309 310 311 311 311 311 311 311 311 311 309 309 309 308 308 307 307 307 305 306 305 305 305
287 288 285 281 279 276 272 276 274 274 278 281 283 279 277 278 285 292 293 291 291 291 292 293 294 295 296 295 295 295 295 295 296 296 297 297 297 297 297 298 299 301 302 303 302 302 301 301 302 303 303 302 302 302 302 302 303 303 303 304 305 305 305 305 305 306 307 307 307 308 309 309 309 309 309 310 310 311 311 310 310 310 311 311 309 309 309 308 307 307 307 307 306 305 306 305 304
288 289 289 282 281 284 278 281 278 277 277 276 278 278 281 284 291 294 294 291 291 291 291 292 292 294 294 294 294 295 296 296 296 295 296 296 298 299 299 298 298 300 301 301 302 302 301 301 301 302 303 302 302 302 302 303 303 303 303 303 304 304 305 305 305 305 306 307 307 308 308 309 309 309 309 309 309 310 310 310 309 310 310 310 309 309 308 308 307 306 305 306 305 307 306 305 304
285 287 281 283 288 287 281 281 279 278 276 276 280 281 286 290 292 294 293 289 289 289 290 290 291 292 294 294 293 294 296 295 294 295 295 296 296 297 299 299 299 299 300 300 301 302 302 302 301 301 301 302 302 302 302 302 303 302 302 303 303 303 304 304 304 304 305 306 307 308 308 308 308 309 309 309 309 309 310 309 309 309 309 309 309 309 309 308 307 306 305 305 305 305 305 305 304
286 280 284 289 290 287 281 275 277 276 273 276 281 277 279 282 279 290 289 287 289 289 289 290 290 291 291 292 293 293 294 297 296 296 296 296 297 297 298 299 299 298 298 299 300 300 301 301 301 301 300 302 301 303 302 302 302 302 302 302 302 303 303 303 304 304 304 306 306 307 307 307 307 308 309 309 309 309 309 307 309 308 309 309 308 308 308 307 306 306 305 305 306 305 305 304 305
287 283 286 284 277 276 281 278 269 270 271 273 278 280 280 281 283 287 286 287 288 289 289 289 290 290 291 291 292 293 294 295 296 295 295 296 295 297 297 298 300 298 298 299 300 299 299 299 300 301 301 301 302 303 302 303 303 303 304 303 302 302 302 302 303 303 303 305 305 305 306 306 306 307 307 308 308 308 308 308 308 308 308 308 307 307 307 307 306 305 304 304 304 304 304 304 304
288 289 285 283 281 279 278 279 277 278 271 273 272 278 277 287 285 288 287 290 289 289 289 289 290 293 293 292 293 294 294 296 295 295 295 296 296 296 297 297 297 299 300 300 300 300 299 298 298 299 299 299 300 301 301 302 302 303 303 302 302 302 301 302 302 302 303 303 304 304 304 304 306 306 307 307 307 307 308 307 308 307 307 307 307 306 306 306 305 305 304 303 304 304 304 303 304
282 281 280 282 282 283 281 281 278 276 273 273 273 272 278 287 290 289 289 290 290 290 290 291 293 294 294 295 295 295 296 296 295 295 295 296 296 296 297 297 298 299 299 299 299 299 301 300 299 298 299 300 300 300 300 301 302 302 302 302 302 303 303 303 303 303 303 303 304 304 304 304 304 305 306 306 306 307 307 307 307 306 306 306 306 306 306 306 305 304 304 304 303 304 303 303 303
286 284 282 284 281 278 275 275 282 278 276 273 274 274 278 289 291 290 289 289 291 291 291 292 293 292 293 295 296 296 297 297 296 296 295 296 295 296 296 297 298 298 298 298 299 298 298 300 302 302 300 299 299 300 300 300 301 302 302 302 303 303 304 304 303 304 304 304 304 304 304 304 304 305 306 306 306 306 306 306 306 305 306 306 306 305 305 305 304 304 304 304 303 303 303 302 303
Wind_Speed
8 7 8 8 6 5 4 3 6 4 4 12 11 8 9 7 11 13 14 12 10 1 1 3 5 2 2 1 1 1 2 5 7 2 2 1 2 4 6 5 5 4 5 9 9 11 11 14 18 18 18 18 18 17 17 16 16 15 15 15 15 14 13 13 13 12 11 11 10 10 10 9 9 8 8 7 7 7 6 6 6 5 5 4 4 3 2 2 2 1 2 1 2 3 3 4 4
7 6 5 4 4 2 4 2 3 5 7 11 12 10 11 10 10 14 12 13 9 5 2 4 3 3 4 5 0 4 6 6 8 3 3 6 6 4 7 6 7 6 5 8 9 10 10 11 16 18 18 18 18 17 17 16 16 16 16 15 15 14 14 13 13 13 12 11 11 11 10 10 9 9 8 8 7 6 6 6 7 5 5 5 4 3 3 3 3 1 1 2 2 1 3 4 5
7 7 6 5 3 4 4 4 5 5 9 13 9 11 7 12 13 12 14 14 12 9 1 1 2 3 2 0 3 5 6 8 10 5 2 11 6 2 4 4 5 6 6 7 9 10 9 11 15 16 18 18 19 18 17 17 16 16 16 15 14 14 14 14 13 13 12 12 12 11 11 11 9 9 9 8 8 7 7 6 7 7 6 5 5 4 4 4 3 1 2 2 1 3 2 4 5
7 6 6 3 2 2 2 3 7 8 10 10 11 7 10 11 13 12 12 10 5 8 1 4 7 3 4 6 4 1 4 6 5 5 2 5 3 5 4 6 6 5 4 6 8 9 8 13 16 17 18 18 18 17 17 17 16 16 15 15 15 14 14 14 13 13 13 13 12 11 11 10 10 10 9 9 8 7 8 7 7 6 5 5 5 4 4 5 2 3 1 2 1 3 3 4 4
7 5 5 4 3 4 2 5 7 7 13 8 11 5 10 11 12 9 6 3 5 4 5 4 4 3 5 6 3 3 4 8 8 5 2 2 5 5 5 5 4 5 4 4 8 8 8 17 16 17 18 18 18 17 17 17 17 16 16 15 15 15 15 14 14 14 13 13 12 12 11 11 10 10 9 9 8 8 8 7 8 7 7 7 6 5 5 4 4 3 1 1 2 3 4 3 4
7 6 4 3 4 1 3 5 7 13 12 10 11 8 9 13 13 12 9 6 3 3 4 3 3 6 6 8 4 6 1 3 0 1 2 2 4 7 6 4 5 5 4 4 5 7 8 19 16 17 19 18 18 18 17 17 17 17 16 16 15 15 15 15 14 15 14 13 12 12 12 11 11 10 10 10 9 9 8 8 8 8 7 7 6 6 6 6 5 3 3 2 3 4 3 4 4
3 3 2 4 5 2 7 8 11 11 11 13 12 13 13 14 13 14 13 9 4 3 3 0 4 9 11 5 5 3 4 3 3 1 3 4 4 7 6 4 4 5 5 4 4 6 11 20 18 17 18 19 19 19 18 17 17 17 16 16 15 15 16 15 15 15 15 13 13 13 12 12 11 11 10 10 9 9 9 9 9 9 8 7 6 6 6 6 6 4 3 3 3 3 4 4 3
2 3 1 5 5 4 9 10 12 9 9 11 12 15 14 15 13 10 12 9 7 9 1 2 10 10 9 10 9 2 10 6 2 7 6 5 5 5 4 4 4 6 5 4 3 2 15 21 19 18 17 19 19 19 18 18 17 17 16 16 16 16 16 16 16 15 15 14 14 13 13 12 12 11 10 10 10 9 10 9 9 8 8 7 7 6 6 6 5 4 3 4 5 4 4 4 4
3 3 1 4 7 4 8 10 11 10 13 12 14 15 15 17 17 13 11 8 8 8 7 12 9 8 4 8 11 4 5 6 4 7 6 4 4 3 5 2 4 7 5 5 3 5 10 18 19 18 17 17 18 18 18 18 17 16 16 16 16 16 16 16 16 16 15 15 14 14 13 13 12 11 11 11 10 10 10 10 10 9 9 8 7 7 7 6 5 5 5 6 6 5 5 4 4
3 3 3 3 2 9 9 10 12 10 13 13 14 14 13 11 11 11 13 12 9 7 9 9 6 13 6 10 8 9 1 3 4 4 6 5 3 3 1 2 1 7 5 5 4 6 5 15 19 18 17 16 16 16 16 16 18 17 17 17 16 16 16 16 15 15 15 14 14 14 14 13 12 12 12 11 11 10 10 10 10 9 9 9 8 8 7 6 6 6 7 7 6 5 5 4 4
4 4 3 5 7 9 10 10 10 9 12 11 13 13 14 13 10 11 12 12 8 10 9 8 10 12 10 11 10 4 3 5 4 5 4 4 3 3 2 3 1 6 6 6 4 5 6 9 17 17 16 16 15 15 15 16 18 18 17 17 16 16 17 16 15 16 15 15 15 14 14 14 12 12 10 9 9 9 10 10 10 10 9 9 9 8 7 6 6 7 8 7 6 4 5 5 4
4 4 3 6 7 8 9 10 12 11 13 12 12 11 5 7 6 8 10 10 8 11 11 6 6 6 9 10 8 2 10 12 2 5 4 4 5 4 2 3 4 3 8 6 5 5 7 7 9 13 16 15 15 15 15 15 16 16 16 17 16 17 17 17 17 16 16 15 15 14 14 14 13 12 10 8 8 7 9 9 10 10 10 9 9 8 7 7 7 8 8 7 6 6 6 5 6
5 2 5 8 8 8 10 13 12 13 11 11 11 9 7 9 6 7 9 11 11 11 11 10 9 9 11 9 2 6 11 5 5 5 2 5 4 3 1 5 3 4 6 6 5 5 7 7 8 9 10 14 13 14 14 14 15 15 15 15 15 16 17 17 16 16 16 15 14 13 12 13 13 12 11 9 9 9 8 6 9 11 10 10 9 8 8 8 8 8 8 7 6 6 7 6 5
4 3 4 8 6 10 11 10 10 11 10 10 9 11 9 8 6 7 6 11 12 12 7 8 8 9 13 7 10 8 3 6 7 4 4 5 3 2 3 3 4 4 3 4 5 5 6 7 7 8 8 9 7 10 13 13 14 14 14 14 14 14 15 15 15 15 14 13 12 11 11 10 11 11 11 9 10 10 9 8 8 11 11 10 9 8 8 8 8 8 8 7 7 7 7 6 6
4 3 4 6 8 8 9 9 9 10 10 9 9 11 9 7 11 8 7 11 12 10 8 11 10 4 7 7 6 9 3 5 6 7 4 5 3 3 2 3 4 4 4 4 5 5 5 8 8 8 8 8 8 7 7 9 13 14 14 14 15 15 14 13 14 14 12 11 11 11 10 10 9 8 9 8 10 11 10 10 9 10 11 11 9 9 9 9 9 9 8 7 7 7 7 6 5
2 2 3 7 10 9 8 9 9 12 10 9 9 9 11 10 10 11 7 7 7 8 9 6 4 7 7 11 9 2 4 6 5 5 5 4 4 3 2 2 3 4 5 5 5 5 5 7 7 8 8 9 8 7 7 8 10 12 14 15 15 15 14 13 13 13 12 11 11 10 11 10 10 6 9 7 9 11 12 9 10 8 10 10 10 9 9 9 9 9 8 8 7 7 7 6 7
2 1 5 6 11 9 8 8 9 10 9 9 11 11 12 11 8 8 8 10 13 12 11 6 10 8 11 11 11 3 6 5 5 4 4 3 2 3 3 3 3 5 4 5 5 7 6 6 9 7 9 9 9 8 8 8 9 11 10 14 15 15 14 14 13 13 13 12 10 10 10 9 7 6 6 5 8 8 10 11 11 11 9 10 10 9 9 10 9 9 8 8 7 7 7 7 5
2 5 6 10 9 11 7 11 10 10 12 11 13 11 11 14 9 9 9 13 13 14 15 12 12 14 13 11 13 13 9 8 3 5 2 3 4 3 5 4 4 6 6 6 5 7 7 7 7 8 8 11 9 8 7 7 8 12 8 8 9 11 12 12 11 9 9 7 12 10 8 7 6 6 7 8 7 7 9 13 12 11 11 11 10 9 8 9 9 9 8 8 8 7 7 2 3
4 4 7 12 7 9 9 11 13 11 11 12 14 13 13 13 13 8 11 14 14 16 15 14 17 13 11 11 14 19 18 17 9 7 6 5 3 4 4 3 6 3 5 6 7 7 8 7 7 7 8 10 10 9 7 7 8 9 9 9 8 10 9 10 9 9 7 8 7 7 7 7 7 6 7 8 8 10 10 13 13 12 12 12 11 10 8 9 9 9 9 8 8 8 3 4 4
6 6 9 10 8 11 13 13 15 12 13 14 15 14 14 13 11 9 13 16 15 19 15 14 17 18 13 13 14 11 10 10 10 10 10 7 6 5 4 5 5 5 7 8 8 7 8 8 9 9 8 10 10 8 7 7 6 9 9 9 8 8 9 9 9 9 8 9 8 8 7 7 7 7 8 12 11 8 9 13 14 12 12 11 11 7 8 9 10 9 9 7 3 2 4 5 6
2 7 9 10 11 12 10 12 14 15 14 15 14 12 15 13 12 11 14 18 18 16 16 16 19 17 16 14 13 12 9 7 8 10 9 8 8 7 7 7 7 7 7 8 7 9 10 10 9 9 8 9 9 8 8 7 7 8 9 9 9 9 9 9 9 9 9 9 9 7 8 7 7 7 7 6 7 7 7 7 8 8 7 6 9 5 5 5 6 4 3 4 3 4 5 5 6
5 10 10 12 13 13 14 14 15 15 15 15 14 13 13 13 13 11 16 18 14 10 12 13 15 14 14 13 10 9 9 11 14 13 11 11 10 10 8 7 6 6 5 7 9 9 11 10 10 10 10 9 10 9 9 8 8 7 9 9 9 8 9 9 9 9 9 10 9 8 8 8 8 7 7 7 7 7 6 7 7 6 6 6 6 6 5 5 6 6 5 5 6 6 6 7 6
10 10 14 14 13 14 11 13 11 11 12 14 11 10 10 12 14 12 15 18 15 12 14 17 17 17 19 16 15 15 15 15 13 11 9 8 8 8 6 7 7 7 6 6 7 8 10 10 10 10 11 10 11 9 8 7 8 7 8 9 9 9 9 9 10 10 10 10 10 9 8 8 8 7 8 7 8 7 7 7 7 7 7 7 6 7 6 6 6 7 6 6 6 6 7 6 6
11 12 11 14 11 15 15 16 14 13 15 14 12 11 13 13 17 10 17 19 19 17 18 19 17 16 18 20 19 19 18 17 17 15 14 13 11 11 10 9 7 6 7 7 7 7 10 11 11 11 11 11 10 10 9 9 8 8 9 9 10 9 9 10 10 10 10 10 10 9 9 7 8 8 8 7 8 7 7 7 8 8 7 7 6 7 7 7 7 7 7 6 7 7 7 5 4
10 11 10 12 12 12 12 12 12 13 15 15 15 16 16 15 15 12 21 19 18 18 17 18 17 17 18 18 18 17 17 17 18 16 14 13 11 11 11 9 8 6 7 7 7 8 10 11 12 13 12 12 11 11 10 9 9 9 9 9 10 10 9 9 10 10 10 10 10 11 10 9 8 8 8 8 7 8 7 7 7 8 8 7 7 8 8 8 7 7 7 7 7 6 5 4 4
6 11 10 9 12 13 13 14 16 17 12 12 16 17 16 15 15 21 24 20 20 18 18 18 18 18 19 19 18 18 19 20 19 18 16 14 13 15 15 12 9 9 9 8 8 8 9 12 13 14 13 13 12 11 10 9 9 10 10 10 9 9 9 9 9 9 9 10 10 11 11 10 9 8 8 7 8 8 8 7 7 7 8 8 7 8 8 7 7 7 6 5 5 5 4 5 4
8 13 14 15 14 14 13 16 18 17 14 15 16 18 17 12 8 15 13 16 17 17 18 19 20 20 20 19 17 17 19 20 20 18 16 15 15 14 14 13 13 13 10 11 10 8 9 11 13 13 12 12 10 11 10 10 10 10 10 9 9 10 9 8 8 9 9 9 9 11 11 11 8 8 7 8 7 8 8 8 8 7 7 8 7 7 7 7 7 7 7 7 6 5 6 5 6
10 12 14 14 13 14 17 18 21 16 13 14 17 19 16 14 11 19 17 16 16 15 16 18 17 17 17 19 19 17 17 17 16 16 19 18 14 13 13 12 12 12 13 13 12 10 9 11 12 14 14 12 12 11 11 11 11 11 10 9 10 9 9 8 8 8 9 9 9 10 10 10 9 7 8 8 8 8 8 8 7 7 7 7 7 7 7 7 7 6 6 6 5 5 6 4 5
9 10 13 15 15 17 16 17 17 14 13 11 10 14 14 8 14 19 19 17 16 16 18 18 17 16 16 17 17 14 15 15 14 14 14 14 12 12 12 11 11 11 10 13 13 12 13 11 12 13 14 13 13 13 12 11 10 9 9 10 9 9 9 8 8 9 8 8 9 10 11 11 10 8 8 9 8 8 8 8 8 8 7 7 7 7 7 7 6 6 6 5 5 4 4 5 4
11 11 11 15 13 13 13 14 11 6 6 5 3 9 6 9 14 14 13 13 15 20 18 15 14 15 14 15 14 14 14 14 15 14 12 11 10 11 12 11 10 10 9 8 12 15 11 8 9 9 13 14 14 13 12 10 10 10 9 9 8 9 9 9 9 8 8 8 9 9 10 11 10 9 7 8 8 8 8 8 8 7 7 7 7 8 8 7 7 6 6 6 5 4 4 4 5
9 12 9 9 10 10 7 5 3 5 2 3 3 8 15 7 12 14 14 15 11 10 10 15 16 15 14 13 14 14 14 14 15 15 14 14 12 11 12 12 13 11 8 7 11 12 12 10 8 8 10 12 13 14 12 12 11 10 9 9 8 10 9 9 9 8 8 8 8 8 10 10 11 11 9 8 9 8 8 8 9 8 7 7 7 7 8 7 7 7 7 7 4 4 4 4 4
7 5 6 5 8 10 4 5 8 7 2 3 3 11 15 13 11 9 10 12 12 13 12 11 12 12 13 13 13 14 14 14 15 16 15 14 14 13 12 13 13 12 12 10 9 10 12 11 10 10 8 11 12 13 12 12 11 10 9 9 9 9 9 9 9 9 8 7 8 8 9 10 10 11 10 8 8 8 8 8 8 7 8 7 7 7 7 7 7 7 6 7 7 5 5 4 4
8 8 8 9 6 7 8 2 6 6 3 5 8 12 14 17 8 8 7 8 12 15 16 16 17 17 15 12 12 12 12 11 12 14 14 14 13 12 13 14 14 14 12 12 11 9 10 11 12 11 11 12 12 13 13 10 9 10 10 10 10 9 9 9 8 8 8 8 8 8 9 10 10 11 11 9 9 9 8 8 7 8 8 8 7 8 7 7 7 7 7 7 7 7 7 5 4
7 6 6 4 8 8 8 8 8 2 4 7 8 11 15 19 21 17 16 14 15 16 17 16 16 15 15 13 12 12 13 13 14 13 14 13 11 14 14 14 15 15 13 13 12 13 12 10 11 13 12 13 12 12 12 11 10 10 9 9 9 9 10 9 8 8 9 8 8 9 9 10 10 11 11 9 8 9 7 7 7 8 8 8 8 8 8 7 7 7 8 6 7 7 7 6 5
4 6 7 7 6 8 12 10 3 6 6 11 9 13 18 20 20 20 18 14 13 16 16 15 14 13 14 14 14 14 14 14 14 14 14 13 13 12 12 12 13 14 12 13 12 10 11 11 10 10 11 11 10 10 9 8 7 5 5 6 7 8 7 8 8 8 8 8 9 9 9 10 10 10 10 10 9 8 8 8 8 8 8 8 8 8 8 7 7 7 8 7 6 6 7 6 6
10 8 6 8 9 9 9 10 11 9 12 11 11 13 18 21 21 21 20 15 12 14 15 13 13 13 13 12 12 12 12 14 13 11 10 11 10 10 10 9 10 10 11 10 10 8 10 9 8 8 8 9 8 7 7 7 7 7 8 5 6 8 8 8 7 8 8 9 9 9 9 9 9 10 11 10 10 8 9 8 8 9 9 8 9 9 9 8 9 9 7 9 7 5 4 7 6
10 7 6 8 10 12 10 11 9 6 6 8 8 14 19 21 21 21 21 17 12 11 12 11 10 10 11 12 11 10 11 13 8 8 8 8 9 9 9 9 9 9 8 9 9 10 10 10 9 10 9 9 9 8 8 9 9 8 7 10 11 10 9 8 8 7 8 8 8 9 9 9 10 10 10 10 10 9 8 7 8 8 9 9 9 10 9 9 7 8 7 7 9 7 5 4 6
7 5 6 9 8 11 9 11 9 3 1 10 10 15 20 21 19 19 19 17 14 11 9 9 11 11 11 11 10 8 9 5 6 6 7 6 5 6 6 6 6 7 6 7 9 10 10 10 10 10 8 9 11 11 11 10 10 11 11 12 9 7 8 9 9 8 8 7 8 9 9 9 10 10 10 10 9 9 8 8 7 9 9 9 8 8 7 8 8 8 7 6 5 8 6 5 6
5 6 6 8 9 9 12 11 3 1 2 10 11 17 21 22 20 19 17 17 10 4 2 4 5 5 4 3 3 4 4 6 5 7 7 7 7 7 6 5 5 5 6 7 7 7 7 8 9 9 9 10 10 11 10 10 8 7 8 5 8 5 5 6 7 7 6 7 7 8 9 9 9 9 10 9 9 8 8 8 8 8 9 9 8 9 9 9 9 10 10 9 7 4 4 4 6
5 6 6 11 8 6 7 4 7 9 6 12 13 14 18 22 16 12 11 2 0 3 1 3 3 4 5 5 4 3 4 5 6 5 4 4 5 7 7 7 7 5 5 4 6 8 8 9 9 9 9 9 9 9 9 8 7 6 5 5 6 7 6 6 5 5 6 6 7 7 7 9 9 9 9 9 8 9 9 9 8 8 10 9 9 10 10 10 10 9 10 9 9 8 6 7 7
6 9 9 9 7 8 7 9 9 10 9 5 10 13 13 8 4 10 12 2 3 2 1 2 3 4 3 3 3 2 3 4 5 5 5 5 6 5 7 8 6 6 5 5 5 5 5 7 7 7 7 8 8 8 9 7 7 6 6 5 5 4 3 6 6 6 8 6 5 7 9 9 10 9 10 11 10 11 11 10 9 9 10 9 9 9 10 12 12 11 12 10 12 11 9 5 7
5 7 8 7 8 12 10 7 9 7 6 2 13 11 7 2 12 9 11 2 3 0 1 4 3 3 3 4 5 5 5 5 5 5 4 5 5 6 5 5 6 5 5 5 4 3 4 5 5 6 5 7 8 9 10 9 10 10 9 9 9 8 8 9 12 13 11 11 12 7 7 9 9 9 9 10 10 8 9 9 8 9 10 9 9 9 9 9 10 11 12 11 11 8 11 7 7
5 4 3 6 5 3 4 7 4 5 4 2 6 2 11 13 13 11 7 9 2 2 1 3 1 0 1 3 5 3 0 2 2 3 4 5 5 5 5 3 5 5 3 3 3 4 4 5 6 7 7 7 8 9 11 10 10 10 14 13 12 13 12 10 7 6 8 7 6 7 8 7 9 10 9 9 9 9 8 9 9 9 10 10 9 9 9 11 11 12 10 10 10 9 9 9 10
8 0 2 3 4 5 4 3 2 6 5 9 5 7 7 12 16 8 6 11 3 3 1 4 6 6 7 6 7 5 3 4 2 1 3 3 3 3 4 2 5 5 4 3 3 3 4 5 6 7 6 7 6 8 10 10 11 10 11 10 9 9 9 8 8 7 6 6 7 7 6 7 8 9 9 9 10 10 9 9 9 8 9 10 10 10 10 10 9 8 10 11 9 9 11 11 9
2 1 4 0 2 4 4 3 5 5 5 10 1 4 1 6 11 12 13 4 5 5 5 6 7 6 5 6 6 6 5 3 1 1 2 2 2 3 2 2 4 5 5 4 3 1 0 1 2 4 5 5 5 8 9 9 9 10 10 9 8 6 6 6 6 6 7 7 7 6 7 7 8 8 9 9 10 10 9 9 9 9 9 10 9 9 8 10 12 12 12 11 11 10 8 8 9
2 1 1 2 1 4 4 3 3 4 2 11 3 5 3 9 9 9 2 5 6 6 4 7 8 7 6 5 5 4 5 4 2 1 1 1 0 0 3 3 4 4 4 5 4 3 2 1 2 3 4 4 5 7 8 8 7 7 8 8 9 7 6 6 7 8 7 8 8 8 7 7 8 8 9 9 9 10 10 9 9 10 10 9 9 10 9 10 11 12 13 13 11 11 8 8 10
1 2 2 4 4 4 4 3 2 3 4 12 9 9 5 4 7 7 1 2 4 4 5 5 6 7 5 5 5 5 5 5 5 4 4 1 3 3 3 3 5 4 4 5 5 4 4 3 3 3 3 3 4 5 6 7 6 6 7 8 8 8 7 7 8 8 7 8 9 9 8 8 7 8 7 8 9 9 10 9 9 9 8 7 8 9 10 10 11 11 10 9 10 11 10 10 6
1 0 1 3 6 4 1 1 3 1 5 0 0 10 7 4 8 5 4 9 6 5 5 4 4 4 4 4 5 5 5 4 4 4 4 4 4 2 1 3 4 5 5 5 5 5 5 4 4 4 4 4 4 5 5 6 6 6 6 6 8 8 8 7 9 10 9 10 9 9 7 7 7 7 7 7 8 9 10 10 8 8 9 8 9 8 8 7 8 8 9 10 10 10 8 10 8
2 2 1 1 3 3 2 3 3 6 7 2 0 4 2 11 12 13 15 14 1 5 6 3 2 2 3 2 3 4 4 4 5 5 4 4 4 3 2 3 2 2 4 5 5 4 4 4 5 5 4 4 4 4 5 5 5 6 6 7 7 7 7 8 8 8 7 8 8 8 9 9 8 9 9 10 10 11 10 10 10 10 9 9 8 8 8 7 8 9 10 11 11 11 10 10 10
5 5 5 3 2 3 4 4 3 4 1 1 3 4 4 4 7 11 11 1 5 5 6 5 2 0 2 2 2 3 4 5 5 4 4 4 3 3 4 1 1 1 2 4 4 5 4 3 3 5 5 4 4 4 4 5 5 5 5 6 7 7 7 8 8 9 8 8 8 9 10 10 10 11 10 11 10 10 9 9 9 9 7 7 7 8 8 7 9 9 10 11 11 10 8 9 10
10 5 8 6 3 2 3 3 5 2 1 2 4 0 5 2 5 1 1 5 4 5 5 4 2 1 0 3 2 2 4 4 4 5 5 3 2 1 1 3 4 1 1 2 3 4 4 4 3 2 6 4 4 4 4 4 4 4 5 4 6 5 6 7 7 7 8 8 7 8 8 8 8 9 9 8 8 10 9 8 9 9 8 8 7 8 8 7 7 7 7 9 8 8 10 9 8
6 5 3 3 9 0 4 0 1 2 3 3 3 5 2 5 6 13 5 5 4 5 4 2 3 3 1 3 4 4 3 4 4 5 6 5 3 1 1 1 1 1 0 1 2 3 3 3 4 2 5 5 4 4 4 4 4 4 4 5 5 5 5 5 5 5 7 7 7 8 8 8 7 7 7 8 8 9 9 9 8 9 8 8 8 9 8 7 7 8 7 8 10 7 10 9 8
4 8 7 6 1 1 2 4 1 1 1 9 3 6 5 7 10 16 8 6 5 5 4 2 3 2 0 1 3 4 3 2 4 5 5 5 5 5 3 1 1 0 1 1 4 4 4 4 4 3 4 5 5 5 4 4 5 5 5 5 5 5 5 6 7 6 6 6 6 7 7 7 6 7 7 8 8 9 9 9 9 9 9 9 9 9 9 9 8 8 9 9 10 8 9 10 8
1 3 2 1 2 3 2 2 0 1 6 4 6 6 3 1 6 1 8 5 7 7 7 5 5 5 3 2 2 3 4 2 2 3 2 3 3 4 5 2 0 1 1 1 2 2 4 5 5 5 5 6 5 5 5 4 5 5 5 5 5 5 5 5 5 6 5 7 6 6 6 7 7 7 7 7 8 9 9 10 9 9 9 9 9 9 9 8 8 8 8 9 9 8 9 7 8
1 1 1 3 2 1 3 2 3 2 5 3 4 8 5 7 6 1 4 7 9 7 6 5 5 5 6 4 4 4 4 2 3 5 5 5 5 4 3 4 2 2 2 2 1 1 1 3 5 5 7 7 7 6 5 4 4 4 4 5 5 4 4 4 4 4 5 5 6 6 5 6 5 6 7 8 8 9 9 9 8 8 9 9 8 8 8 8 8 8 7 7 7 8 8 9 8
1 1 4 1 2 2 6 6 3 2 4 1 3 2 5 5 6 8 5 1 11 8 7 6 5 2 2 2 4 3 2 2 4 4 4 4 4 4 4 4 4 3 1 2 2 2 2 3 4 5 4 4 6 6 6 6 5 4 4 4 4 4 4 4 4 4 4 4 5 4 4 4 6 5 6 7 8 9 9 9 8 9 9 9 8 8 8 8 8 8 8 7 8 9 9 9 8
5 1 3 1 2 1 1 3 3 3 2 4 3 5 5 3 1 0 1 5 6 9 8 5 1 0 1 1 1 2 1 1 3 5 5 5 5 5 5 4 3 2 2 1 2 3 4 3 3 3 4 6 7 7 7 7 7 6 6 6 6 6 6 5 5 5 5 5 5 5 5 4 4 5 6 7 7 8 8 9 9 8 9 9 9 9 8 8 8 8 8 8 7 10 10 9 8
11 13 12 12 8 3 3 9 2 3 2 4 3 11 3 4 3 3 4 4 9 6 5 1 1 1 1 1 0 2 1 1 3 3 4 6 5 6 6 5 4 3 3 3 3 4 4 4 5 5 4 4 4 5 6 7 7 8 8 8 7 6 6 6 6 7 7 7 6 7 6 5 6 5 6 7 7 7 7 8 8 8 8 8 9 9 8 8 9 9 9 7 8 10 10 10 9
Wind_Direction
278 258 248 241 234 247 269 211 253 197 228 249 259 237 256 233 253 256 254 269 250 122 14 329 122 124 203 114 178 335 216 252 197 168 289 212 93 105 114 121 117 126 122 128 140 153 162 172 168 167 166 166 166 167 166 166 168 170 171 178 173 176 176 176 178 180 180 180 188 180 185 188 189 185 188 186 199 188 183 193 196 193 185 187 200 206 209 216 264 347 357 27 329 9 317 337 349
286 286 258 278 252 244 214 222 247 264 251 253 242 250 254 259 267 264 267 263 262 248 179 205 262 168 224 268 314 37 268 229 249 241 233 119 135 98 128 136 149 135 131 132 137 155 164 172 171 171 168 168 167 169 169 168 170 172 170 183 175 177 177 179 183 180 182 179 194 184 183 194 190 185 191 189 200 188 195 198 201 189 198 201 216 210 196 210 238 177 251 257 328 34 302 314 349
305 304 286 222 244 220 316 159 236 219 241 252 253 240 246 256 251 256 259 257 272 280 44 254 289 181 206 248 252 194 249 257 274 285 268 150 112 63 115 118 119 141 135 135 145 157 163 170 173 173 172 171 170 170 172 171 173 175 174 177 178 180 181 185 185 180 185 187 189 188 190 191 188 190 190 194 194 191 198 201 211 194 197 202 216 193 204 209 236 239 202 324 356 288 275 320 349
281 276 275 288 257 160 232 218 237 248 247 252 267 250 254 248 250 253 258 279 340 342 156 239 219 122 206 195 206 169 244 253 256 261 272 35 84 166 124 108 124 123 136 135 151 160 161 167 173 173 174 174 174 174 172 172 175 177 177 178 178 180 187 187 185 186 190 191 188 192 194 191 191 195 188 199 195 190 203 197 211 208 205 197 218 207 207 224 237 225 205 212 350 293 322 331 337
274 262 249 262 282 225 212 231 235 225 241 242 259 263 261 265 274 263 258 294 306 321 320 263 266 175 189 258 216 216 203 219 229 282 121 83 108 130 120 122 127 117 139 167 148 161 162 163 172 173 174 176 177 176 174 175 177 179 178 182 180 182 188 187 188 190 192 194 194 194 194 194 194 195 194 197 198 195 210 199 215 203 202 205 207 213 219 226 228 244 209 237 254 270 309 326 325
256 263 232 246 221 356 227 240 232 234 242 254 262 264 274 283 293 298 295 297 269 294 99 26 300 274 201 201 224 246 282 204 160 228 36 141 105 110 111 150 124 141 146 182 169 159 154 160 172 172 175 178 179 178 178 177 180 180 181 183 183 185 191 190 188 191 195 195 198 200 197 197 195 196 197 196 196 196 206 202 212 212 211 206 207 214 223 220 229 230 208 229 258 269 298 316 310
286 295 220 214 253 289 252 242 244 250 245 245 253 264 266 265 264 287 293 291 259 169 50 58 319 325 307 320 280 192 249 127 215 171 87 166 107 109 128 140 138 135 159 168 196 164 148 160 169 174 177 179 180 180 181 182 181 183 183 184 184 188 191 193 192 191 196 197 197 200 203 201 197 201 199 196 199 200 204 203 207 209 208 210 215 218 223 223 231 222 240 244 241 244 276 294 321
273 287 234 212 241 199 228 246 252 250 257 258 268 267 264 277 287 260 278 282 283 266 74 335 247 257 251 248 268 202 210 213 155 130 135 126 121 120 116 137 147 137 152 166 199 153 149 161 168 174 179 181 181 182 182 184 184 187 184 186 187 189 192 194 194 193 196 199 200 200 203 202 201 203 199 201 202 204 204 205 211 211 210 213 217 219 220 225 229 233 231 240 248 251 265 293 324
229 223 254 304 253 248 259 244 253 243 259 256 262 268 281 280 283 289 272 272 286 277 248 212 223 235 270 235 245 270 189 220 68 101 102 104 91 125 130 149 175 141 147 159 167 95 154 163 167 171 178 183 182 182 182 185 185 189 188 188 189 191 195 197 196 197 197 200 201 204 206 205 204 205 203 203 206 205 206 208 210 209 212 214 215 219 220 223 225 230 229 233 240 248 251 281 299
249 192 208 232 267 255 255 252 253 249 256 256 262 266 267 275 281 287 291 269 259 280 270 265 209 256 257 263 263 223 252 86 79 87 84 77 67 61 69 170 236 136 154 151 153 127 151 165 167 170 178 183 183 182 182 183 185 188 190 192 190 194 197 199 198 198 200 201 203 206 209 209 206 208 209 206 207 209 208 209 212 212 213 214 216 218 221 223 227 227 233 234 239 249 258 267 280
258 196 254 272 241 255 252 264 259 269 262 259 257 253 254 255 259 273 269 275 282 264 260 268 280 274 261 248 248 336 170 127 178 141 108 97 89 71 51 353 76 123 152 148 146 127 144 169 168 171 180 181 183 184 183 182 186 189 190 191 191 195 199 200 199 201 202 202 203 207 209 211 209 211 209 206 202 207 212 212 212 214 216 216 215 217 220 223 227 231 234 242 243 253 255 261 267
274 264 206 229 252 257 263 270 270 268 266 269 264 280 291 305 302 275 270 271 263 258 260 254 263 283 265 269 268 258 281 265 96 105 118 132 96 89 54 23 58 61 131 136 141 132 148 162 171 176 180 182 183 184 184 184 187 188 189 192 190 196 199 200 201 202 205 204 205 207 208 212 213 212 208 196 182 197 216 219 216 215 217 218 216 217 218 224 226 228 233 236 239 243 247 260 276
260 293 267 261 249 241 258 263 269 281 293 287 296 281 296 289 265 272 278 283 277 277 270 262 270 263 264 256 266 255 250 71 94 91 96 93 94 103 133 94 61 51 117 127 138 146 149 158 173 178 183 184 186 183 183 188 188 188 188 191 192 196 199 200 203 202 205 206 205 207 208 212 214 216 216 189 179 186 205 236 226 219 219 219 217 217 219 224 227 228 230 233 237 241 248 253 268
245 241 266 266 271 273 271 274 275 274 269 283 282 297 298 296 297 284 299 280 269 260 271 281 264 258 266 269 251 253 216 100 97 85 81 65 78 93 77 89 101 104 95 128 150 151 150 161 170 175 182 187 186 185 186 188 187 187 188 188 190 196 200 198 200 205 206 204 202 203 205 208 218 217 214 192 177 181 192 217 228 220 221 220 216 217 221 225 228 230 231 231 235 241 245 251 260
254 293 277 271 270 273 267 271 277 277 274 284 290 299 309 311 324 325 303 287 278 279 287 289 287 256 250 244 252 251 96 139 119 122 143 133 139 110 110 100 133 127 148 172 157 162 162 160 167 173 183 186 187 185 187 188 187 188 186 187 189 196 201 197 196 203 203 199 200 201 200 206 226 221 207 200 180 182 188 200 214 227 225 221 217 218 222 226 230 232 230 231 233 240 245 254 252
257 280 281 271 262 263 259 266 271 271 271 276 285 319 327 323 322 298 263 272 290 293 288 279 295 285 284 259 272 56 126 143 150 146 136 143 132 105 124 202 171 158 162 185 172 166 173 158 166 169 181 188 189 185 189 189 190 190 190 188 190 195 199 197 195 197 202 198 194 192 193 198 220 225 208 207 184 185 189 189 201 215 228 227 220 217 224 229 233 232 230 232 234 237 245 244 252
238 253 263 254 259 252 262 262 263 263 285 287 309 316 312 299 297 299 318 308 290 281 271 249 261 273 276 287 303 284 187 158 169 144 145 141 143 154 174 190 200 160 167 185 189 165 173 172 166 167 179 187 188 186 190 192 194 190 196 193 190 193 196 196 195 195 196 198 197 196 191 194 200 212 216 210 197 187 191 192 194 197 208 230 224 220 227 232 232 232 231 231 232 238 242 247 239
235 231 231 250 258 260 270 270 275 293 295 303 300 300 306 304 297 281 315 290 285 285 277 270 246 248 270 276 280 286 269 253 267 270 224 190 185 191 192 177 174 190 175 180 202 170 169 180 174 170 173 183 187 189 188 188 188 191 194 194 194 193 194 194 195 194 192 192 194 193 193 194 195 199 206 205 205 193 192 192 199 190 195 210 219 222 235 235 231 228 228 231 232 235 240 158 196
211 242 247 257 253 264 275 279 284 293 290 298 294 297 286 280 298 288 283 281 288 284 282 288 280 254 234 235 238 253 266 277 272 264 263 258 218 214 236 205 190 180 182 181 189 183 175 176 179 183 170 178 184 190 191 184 179 185 193 194 195 194 193 192 192 194 193 192 187 189 191 191 194 209 202 195 197 188 192 192 193 190 193 197 203 214 228 238 233 227 227 229 235 237 190 190 222
202 233 252 255 264 276 275 277 283 287 298 287 284 283 289 285 277 296 275 279 274 269 273 274 273 271 266 264 274 260 240 237 241 250 259 251 243 235 225 241 246 206 191 185 180 184 174 181 185 183 175 174 180 187 190 183 178 175 188 193 191 193 194 194 196 195 195 196 193 192 193 197 195 201 213 196 188 186 188 188 192 189 186 190 191 201 218 231 232 230 227 226 189 196 177 209 223
203 233 242 258 256 265 268 290 298 306 303 291 284 296 279 266 265 270 274 275 260 267 270 274 276 281 285 283 276 274 263 253 234 225 229 236 233 225 222 223 217 219 201 183 170 180 182 183 180 184 179 174 179 184 185 187 180 170 186 189 191 191 194 193 197 197 198 196 199 198 197 198 197 194 201 200 188 180 176 180 188 188 185 186 184 183 195 209 221 220 220 197 215 209 211 222 234
251 248 261 264 294 305 293 282 278 269 266 267 274 280 281 295 277 262 264 257 259 256 263 262 267 271 269 274 263 267 263 253 255 255 244 236 233 227 217 215 222 221 204 174 179 180 182 180 179 181 179 178 182 183 185 184 181 180 180 187 191 190 189 192 194 198 196 199 199 200 193 195 196 194 196 187 183 175 171 167 177 179 180 186 176 188 194 199 202 202 199 201 212 226 215 218 229
249 239 236 234 249 263 273 284 287 298 298 301 292 275 283 271 279 275 267 264 268 259 257 255 259 271 280 276 275 278 282 281 279 271 264 261 262 264 239 202 204 214 221 207 176 179 177 177 178 177 181 180 184 186 182 179 190 190 180 183 188 193 185 190 193 196 199 194 197 195 196 194 194 195 193 182 181 173 177 167 173 179 185 187 177 182 197 208 189 198 198 196 199 215 229 217 210
266 279 301 287 271 272 286 281 277 274 280 276 275 283 271 271 269 262 257 254 260 256 256 263 262 262 266 273 272 270 271 272 268 265 264 263 258 251 249 244 209 200 203 215 201 174 176 179 178 179 183 180 184 187 185 186 189 189 192 182 191 193 186 192 192 193 193 197 193 193 195 196 194 194 193 182 179 175 184 178 171 178 186 188 176 177 188 209 197 190 192 192 194 208 220 209 194
267 271 272 280 274 260 259 272 279 282 277 276 274 268 260 260 267 273 260 263 261 262 262 262 260 257 256 256 258 258 258 255 254 253 254 254 254 251 246 237 230 208 210 206 204 187 180 180 181 181 183 185 184 183 189 190 187 191 190 189 191 188 195 192 190 185 190 193 192 189 189 195 195 197 194 184 167 182 180 183 178 176 179 184 177 179 185 200 200 188 187 185 189 208 207 202 174
252 266 272 283 294 299 293 289 281 275 276 272 272 266 269 260 261 259 260 261 261 261 260 259 256 254 254 253 251 250 250 250 252 251 247 246 241 240 240 235 229 223 215 208 204 200 182 183 184 187 183 185 184 180 191 190 190 190 192 194 191 186 198 191 183 188 190 187 190 190 189 192 194 196 194 182 175 179 182 183 184 178 176 181 177 179 187 187 190 186 187 178 183 196 203 199 182
294 289 286 284 287 293 286 277 276 273 270 272 270 269 265 258 257 269 255 253 255 253 252 251 251 253 255 255 254 252 250 249 248 249 246 240 240 238 235 229 224 225 218 218 212 206 196 184 188 188 190 186 182 182 190 196 191 192 194 192 189 193 193 185 187 188 187 190 188 187 188 190 190 191 189 185 182 177 179 184 187 176 176 182 174 180 181 182 184 183 180 177 176 192 214 201 180
282 282 287 281 286 279 275 272 267 265 265 254 253 258 255 247 234 252 270 265 259 257 251 250 250 249 248 247 248 247 247 248 248 244 242 239 237 233 234 228 222 218 215 217 214 210 203 198 187 189 190 189 184 188 191 194 196 197 191 189 195 194 184 189 189 190 191 189 185 185 188 188 189 189 183 185 184 181 183 183 183 178 183 178 174 176 178 179 181 182 178 172 175 182 204 209 181
301 308 293 284 275 270 264 260 257 247 257 245 255 277 261 245 245 248 252 255 258 252 252 256 258 253 248 249 247 243 244 244 241 241 239 236 235 232 233 225 219 216 214 210 209 207 210 203 197 191 191 191 189 191 194 196 196 194 188 193 193 186 188 189 193 194 191 188 186 184 187 186 188 190 183 183 182 185 185 181 183 186 180 176 172 174 173 176 175 173 174 168 172 181 191 205 174
291 264 265 282 282 267 263 260 249 241 232 244 76 289 233 226 236 248 253 255 245 241 248 251 246 247 250 251 248 245 244 244 243 241 239 233 229 230 233 230 221 215 211 207 204 208 205 203 199 199 195 192 192 197 195 192 194 194 191 188 183 181 186 191 197 194 189 189 187 184 185 186 187 190 182 180 179 181 186 186 183 185 181 175 168 168 173 172 172 163 168 153 178 181 193 205 157
268 268 257 261 277 276 263 305 329 217 109 116 141 251 276 244 264 262 252 254 276 285 246 233 234 237 241 240 243 244 242 239 241 240 235 229 227 227 227 227 229 225 215 208 202 203 201 201 192 205 199 195 193 199 194 192 193 191 186 183 182 183 187 192 195 192 192 189 182 188 185 186 187 189 187 177 179 179 184 186 185 185 177 171 166 171 167 168 166 168 158 159 177 185 194 203 164
258 281 253 245 251 272 300 286 276 284 122 239 192 258 266 275 261 260 273 276 274 270 272 266 259 250 240 237 237 236 235 234 235 237 235 230 220 223 222 224 226 225 221 215 210 195 201 196 190 195 193 196 197 197 196 194 191 188 184 183 183 183 186 193 194 194 193 186 186 188 187 186 185 188 189 177 178 182 183 187 187 174 176 168 165 165 165 170 169 167 170 160 168 189 186 209 189
236 228 261 256 263 310 318 289 335 324 325 193 198 269 292 282 259 268 262 268 268 264 259 261 263 261 256 250 245 247 249 243 238 233 231 229 223 217 217 219 221 221 219 215 210 199 194 189 188 193 196 196 196 194 195 194 186 185 184 183 184 183 188 195 194 191 190 191 192 190 187 185 185 185 187 181 177 183 182 182 182 177 172 170 162 167 173 175 168 166 175 173 164 175 179 194 196
259 226 257 316 309 316 293 319 296 127 183 256 242 260 263 271 285 281 273 263 263 262 261 254 249 250 254 254 252 250 245 242 243 241 236 229 221 218 216 213 217 218 217 213 208 195 192 185 189 196 199 197 193 192 194 193 189 185 183 182 183 186 194 193 192 187 191 190 189 194 187 184 185 184 185 184 180 182 180 177 174 174 170 167 162 166 179 174 171 164 172 181 172 164 176 181 189
303 330 311 301 311 293 288 296 320 301 267 261 262 264 280 284 286 286 285 280 272 269 269 268 262 253 244 242 242 243 245 244 241 236 235 234 230 222 223 219 217 218 219 216 212 195 187 191 189 193 194 195 195 189 189 185 172 169 170 177 186 194 189 191 186 189 191 188 195 192 183 184 185 184 184 185 183 178 181 176 172 173 169 169 164 165 176 179 171 171 167 176 183 173 169 177 175
279 291 298 295 294 295 287 291 292 280 286 290 290 285 289 290 290 291 289 281 267 266 264 258 254 251 255 250 241 239 241 245 246 246 240 234 232 227 225 226 221 214 217 214 207 190 187 189 191 194 192 189 189 173 161 161 162 171 179 187 192 200 194 187 189 189 184 192 194 185 181 181 181 183 185 186 185 178 180 179 170 170 172 170 170 169 178 183 176 173 173 165 173 196 174 164 167
266 272 288 286 283 280 281 278 288 308 328 286 295 288 284 283 286 288 287 289 283 266 263 260 255 252 249 250 250 245 241 246 246 246 244 234 229 224 221 221 220 212 208 203 195 188 182 182 180 198 191 179 169 164 168 168 174 181 189 194 200 195 189 184 190 190 189 194 186 182 176 178 178 182 185 183 188 181 179 173 165 172 172 177 177 181 179 181 175 169 164 159 164 172 206 177 171
262 276 280 280 273 276 284 293 297 47 351 292 293 287 284 285 288 287 287 286 274 262 255 251 251 246 241 239 240 238 243 252 252 259 260 254 243 237 231 225 210 209 213 190 186 183 182 185 189 194 181 175 177 175 175 179 182 188 189 197 189 178 179 183 193 195 195 188 181 179 175 176 177 181 183 184 183 182 175 174 174 174 174 179 179 174 171 173 168 164 160 153 173 167 185 178 173
272 263 277 276 271 281 278 270 305 164 235 287 303 301 294 291 288 285 283 272 271 227 211 292 311 316 307 297 262 246 255 259 254 243 237 235 235 230 223 218 213 199 194 185 184 178 182 189 196 192 181 179 181 176 173 183 187 185 182 182 178 176 193 192 191 190 183 182 183 175 172 173 171 179 180 180 179 178 178 178 184 173 177 174 170 174 174 176 177 172 172 165 162 174 162 185 177
255 264 255 256 272 298 301 297 337 326 328 296 305 301 295 290 285 273 283 236 102 66 56 292 9 354 341 324 324 317 304 291 287 280 277 260 235 219 210 208 210 202 204 193 187 187 190 194 195 186 179 179 175 180 179 182 173 164 163 159 172 170 178 175 170 171 181 175 182 171 169 172 172 175 176 178 178 181 182 185 179 173 181 179 178 175 179 178 177 175 173 170 158 164 181 195 186
237 232 245 262 271 264 262 300 320 311 284 277 331 309 287 260 324 328 313 309 84 145 236 294 248 232 247 286 313 285 255 266 277 301 308 304 295 260 209 206 192 194 206 210 200 198 193 196 191 182 174 175 174 170 168 155 145 146 149 136 146 129 113 157 164 188 189 185 164 177 181 173 175 174 178 184 187 186 185 183 181 176 178 182 180 181 183 184 183 179 174 169 177 174 181 167 197
253 226 224 246 262 272 281 322 331 319 318 164 28 342 303 338 326 303 294 310 98 313 200 237 232 217 209 236 238 238 235 236 235 249 266 275 283 303 298 187 170 180 195 208 195 199 182 185 180 184 174 166 170 171 166 158 165 166 164 158 172 181 178 172 188 191 184 187 194 175 167 177 176 179 182 188 191 188 186 184 180 178 179 182 187 187 184 179 181 181 185 179 179 183 170 156 178
265 259 213 246 266 325 334 308 341 301 303 304 23 202 284 308 307 300 300 300 187 222 250 296 188 257 216 272 251 178 327 6 16 345 316 296 287 275 287 169 155 165 201 181 201 201 183 178 182 182 182 177 172 175 173 167 171 178 182 185 183 185 184 198 190 181 184 183 157 171 178 174 181 181 186 185 189 190 187 188 186 183 181 185 186 184 185 188 186 187 181 183 184 171 163 173 176
256 252 208 256 283 274 275 295 260 253 281 282 239 198 240 297 298 288 282 293 192 190 344 20 13 18 11 6 11 25 24 73 359 281 303 310 304 296 281 186 162 173 174 153 180 202 207 199 187 188 184 177 174 169 175 175 177 181 184 187 187 188 192 184 174 172 162 159 171 173 170 180 180 183 184 186 187 189 189 189 188 183 182 187 185 193 191 187 183 186 187 188 178 181 177 177 173
240 33 27 71 324 305 301 284 268 264 316 296 239 164 243 245 267 293 288 290 31 342 19 18 6 12 7 4 4 7 360 69 14 333 326 333 343 339 312 29 70 95 108 122 130 164 273 171 170 169 180 173 171 169 175 182 180 181 183 181 184 191 176 165 159 156 163 165 172 175 174 179 181 185 185 186 187 187 189 189 188 188 185 188 189 194 191 185 186 183 184 184 187 188 183 169 162
127 147 145 237 242 251 237 238 269 300 310 271 232 180 209 279 270 288 284 58 357 334 18 26 14 0 4 7 359 1 359 350 340 2 4 95 13 116 339 61 77 84 88 107 118 127 137 128 152 168 177 168 165 168 177 182 178 170 178 187 185 179 171 165 161 168 170 166 175 178 176 175 183 185 188 186 185 186 188 189 190 192 192 189 188 193 192 188 188 190 189 188 183 183 186 177 177
139 20 344 287 251 225 222 239 256 300 243 252 233 193 164 299 279 256 51 10 310 312 35 24 21 8 2 17 33 18 2 350 347 346 355 71 167 153 208 136 142 143 144 139 148 140 150 156 163 168 179 147 153 167 169 181 177 174 181 184 186 181 178 166 163 169 165 165 176 180 178 179 178 186 182 187 187 184 187 191 191 192 191 189 186 193 200 193 191 189 186 180 184 183 185 189 175
93 53 283 334 294 213 135 221 135 209 265 279 103 163 170 176 280 282 330 325 327 84 70 41 36 356 4 43 50 44 30 24 8 9 357 6 17 11 15 132 146 166 153 141 136 142 147 154 153 160 166 154 164 176 167 176 177 179 175 179 186 186 178 172 170 173 173 173 172 175 173 166 181 184 186 188 191 187 184 192 192 187 191 192 195 195 199 191 183 179 179 182 187 188 183 188 189
134 169 254 94 284 9 256 132 246 208 234 223 191 117 289 239 247 278 289 288 28 100 120 96 70 7 342 26 62 54 42 29 36 28 20 17 10 343 18 11 12 108 138 130 130 130 129 138 158 144 170 149 171 168 176 180 177 184 176 178 181 180 181 170 166 165 168 170 172 171 175 183 177 184 193 193 197 191 185 187 191 193 193 196 193 190 196 185 180 179 182 184 186 187 187 183 189
164 166 162 143 221 197 245 222 218 243 159 277 152 213 248 261 277 245 260 304 128 130 131 131 134 321 334 342 20 49 46 41 36 37 43 40 9 339 326 324 139 46 53 111 121 124 125 129 140 144 165 151 162 159 177 180 188 184 180 176 177 177 179 171 170 171 174 177 176 179 183 185 186 191 188 196 192 188 191 190 189 194 194 192 189 192 192 188 183 183 182 184 187 189 183 183 188
202 176 175 197 187 193 236 187 215 227 241 198 222 136 237 134 232 250 43 128 139 146 133 171 186 198 308 330 332 19 34 31 35 34 32 42 50 352 313 316 318 332 86 104 127 121 124 141 139 136 133 153 150 170 177 179 185 180 184 184 179 183 180 173 176 170 172 176 183 180 187 187 189 189 190 190 180 189 191 186 186 190 193 193 189 190 193 190 187 179 182 185 184 183 187 181 182
191 178 183 259 235 200 211 50 16 309 349 322 194 200 230 204 297 302 298 121 107 117 138 179 205 140 294 319 340 355 17 28 28 34 22 19 29 33 43 325 293 290 16 119 126 123 126 140 144 173 151 167 162 166 182 178 184 177 180 181 184 174 174 168 179 178 178 177 182 182 185 189 188 182 183 177 184 182 187 187 185 189 189 192 192 192 194 193 187 182 180 181 186 182 185 186 184
214 144 205 204 350 174 303 335 76 99 95 246 182 280 269 276 277 263 269 125 125 147 168 197 221 229 166 290 320 327 334 20 35 36 28 10 3 11 22 18 310 297 265 236 162 154 160 149 146 159 129 148 165 173 181 179 173 168 185 180 185 180 175 177 182 189 181 181 180 182 180 187 177 176 177 177 177 181 183 184 185 187 188 191 192 192 193 193 187 185 183 182 186 183 184 190 181
87 179 238 357 21 105 127 217 314 198 231 259 153 237 276 245 310 236 125 135 151 177 185 198 212 216 201 235 286 305 311 335 51 48 31 21 12 7 355 341 222 251 237 240 245 189 163 164 168 163 159 160 174 170 179 178 175 170 178 183 189 187 182 182 178 186 179 173 181 177 172 179 185 177 169 173 169 174 177 182 183 186 188 189 190 188 190 188 184 189 186 186 185 177 183 185 189
154 218 319 122 229 243 249 100 270 219 247 273 225 246 240 181 224 245 200 150 179 183 199 195 226 221 213 220 243 258 289 309 23 24 16 3 3 356 338 339 297 220 222 241 205 189 240 189 183 175 175 174 173 170 171 167 162 170 171 183 185 189 184 185 188 177 173 170 181 183 180 182 176 163 159 163 167 173 177 182 183 184 186 190 187 188 187 188 185 189 188 182 180 178 181 186 188
68 344 316 211 63 236 156 199 221 165 254 200 272 181 264 182 209 224 230 152 164 177 188 210 224 158 138 197 226 236 262 297 21 26 15 1 343 334 318 320 316 302 257 224 207 185 223 247 211 199 182 157 151 160 167 168 175 159 166 164 182 180 184 179 188 178 180 180 187 185 184 176 183 159 161 164 170 175 178 182 185 184 187 188 187 187 186 188 185 193 189 183 184 179 184 185 185
220 199 265 237 215 231 95 298 199 178 213 219 253 269 266 248 193 306 301 288 181 161 188 192 156 71 136 11 278 226 248 323 28 21 10 352 342 330 323 307 295 289 252 217 213 212 222 192 215 244 209 182 175 177 172 179 170 176 171 181 185 181 189 186 186 191 188 190 188 186 191 190 169 176 162 171 175 177 179 182 183 186 187 186 186 186 186 187 189 191 193 190 182 184 184 186 180
193 184 202 191 170 173 198 263 160 244 141 233 205 254 192 263 25 22 340 247 153 160 141 154 254 248 235 248 313 89 65 23 37 21 15 345 334 329 324 319 311 305 293 255 224 202 208 200 208 192 198 208 199 196 186 179 176 175 176 182 186 183 184 183 187 193 195 193 192 189 187 184 187 187 170 176 178 178 180 181 185 187 188 187 187 187 185 186 191 190 194 192 188 185 186 186 182